RCM 2

导读

RCM 2是加拿大RADARSAT星座任务(RCM)的第二颗卫星,于2019年6月12日成功发射,是加拿大新一代雷达成像对地观测卫星。它与另外两颗同型号卫星组网运行,可实现全天候全天时对地观测,能穿透云雾、烟雾开展监测。 卫星数据核心服务于海事监视、灾害管理与生态监测三大领域,可为北极冰情监测、船舶识别、溢油监控,地震洪水等灾害应急响应,以及农业林业资源调查提供高频次观测数据,它能实现每日全覆盖加拿大国土,重访周期大幅缩短至4天,大幅提升加拿大地观测效率。

基本信息
目录编号:
44324
目录名称:
RCM 2
国际标识:
2019-033C
轨道中心:
EARTH
卫星名称:
RCM 2
卫星全名:
--
卫星状态:
在轨 (已飞行2650 天)
发射日期:
2019-06-12 UTC
国别 :
加拿大 (CA)
星等 :
--
该卫星已列入 空间交会检测服务 Space Conjunction Data Service (SCDS) ,当前飞行风险评估等级: 无高风险
轨道信息
数据来源 国际轨道数据 AOE轨道数据
星历时间 2026-09-13T12:50:37+0800
3小时前
查看轨道信息
2026-09-10T18:00:00+0800
2天前
查看轨道信息
半长轴 6968.007km 6967.976km
偏心率 0.0001517 0.0001391
轨道倾角 97.760° 97.760°
近地点辐角 89.838° 106.391°
升交点赤经 262.449° 259.703°
平近点角 270.301° 57.506°
近地点 588.812km 588.869km
远地点 590.928km 590.809km
周期 96.477分钟 96.476分钟
每日圈数 14.925881 14.925978
详细信息
使用方式:
暂无
2D轨道图
3D轨道图
轨道高度分析图
轨道倾角分析图
轨道综合分析图
查看轨道综合分析图
与全量物体交会距离演化趋势
与全量物体交会风险概率演化趋势